Regional Weather Roundup
Issued by NWS

Home | Current Version | Previous Version | Text Only | Print | Product List | Glossary On
Versions: 1 2 3 4 5 6 7 8 9 10 11 12 13 14 15 16 17 18 19 20 21 22 23 24 25 26 27 28 29 30 31 32 33 34 35 36 37 38 39 40 41 42 43 44 45 46 47 48 49 50
000
ASUS45 KABQ 252210
RWRNM
NEW MEXICO REGIONAL WEATHER ROUNDUP
NATIONAL WEATHER SERVICE ALBUQUERQUE NM
400 PM MDT SUN SEP 25 2016

NOTE: "FAIR" MEANS FEW OR NO CLOUDS BELOW 12,000 FEET AGL WITH NO
       SIGNIFICANT WEATHER OR OBSTRUCTIONS TO VISION.

      THIS PRODUCT IS RELEASED AS TWO VERSIONS.  ONE VERSION NEAR
      THE TOP OF THE HOUR CONTAINING PRELIMINARY DATA FROM ALBUQUERQUE
      AND OTHER STATIONS.  A FINAL VERSION WITH ADDITIONAL DATA IS
      ISSUED ABOUT 10 MINUTES AFTER THE HOUR.

NMZ501-503-504-510>518-252300-
NORTHWEST PLATEAU/NORTHCENTRAL MOUNTAINS

CITY           SKY/WX    TMP DP  RH WIND       PRES   REMARKS
FARMINGTON     FAIR      72  26  18 W8        30.30F
LOS ALAMOS     FAIR     N/A N/A N/A SE10      30.39S
SANTA FE       FAIR      72  32  23 SE16G25   30.34S
TAOS           FAIR      66  30  26 SW5       30.38S
ANGEL FIRE     PTSUNNY   59  31  35 SE7G16    30.47S

$$
NMZ402-403-502-505>509-252300-
WESTCENTRAL MOUNTAINS/SOUTHWEST MOUNTAINS

CITY           SKY/WX    TMP DP  RH WIND       PRES   REMARKS
GALLUP         FAIR      72  32  23 MISG      30.32F
SILVER CITY    FAIR      77  32  19 E15G22    30.22R

$$
NMZ407-409-411-412-252300-
SOUTHERN DESERTS

CITY           SKY/WX    TMP DP  RH WIND       PRES   REMARKS
DEMING         FAIR      82  34  17 E12G22    30.14F
LAS CRUCES     FAIR      81  33  17 SE18G26   30.16S
HOLLOMAN AFB   PTSUNNY   77  35  21 VRB3      30.14F
ALAMOGORDO     FAIR      75  34  22 N6        30.16F
T OR C         FAIR      75  35  23 N18G24    30.20F

$$
NMZ519>523-252300-
CENTRAL VALLEYS/CENTRAL HIGHLANDS

CITY           SKY/WX    TMP DP  RH WIND       PRES   REMARKS
ALBUQUERQUE    FAIR      73  34  23 SE21G29   30.30S
DOUBLE EAGLE   PTSUNNY   73  36  25 SE14      30.33S
MORIARTY ARPT  FAIR      69  32  25 E16       30.38S
CLINES CORNERS FAIR      61  34  36 E21       30.41S
BELEN          NOT AVBL
SOCORRO        FAIR      77  35  21 E17G24    30.26R

$$
NMZ524>526-539-540-252300-
SOUTHCENTRAL MOUNTAINS

CITY           SKY/WX    TMP DP  RH WIND       PRES   REMARKS
RUIDOSO        CLOUDY    57  39  51 E17G26    30.40R

$$
NMZ527>531-252300-
NORTHEAST HIGHLANDS/NORTHEAST PLAINS

CITY           SKY/WX    TMP DP  RH WIND       PRES   REMARKS
LAS VEGAS      FAIR      65  31  28 VRB3      30.42S
RATON          FAIR      66  33  29 E13G20    30.39S
CLAYTON        FAIR      67  37  33 NE17G23   30.36S

$$
NMZ532>537-252300-
EASTCENTRAL PLAINS

CITY           SKY/WX    TMP DP  RH WIND       PRES   REMARKS
TUCUMCARI      FAIR      76  35  22 NE21G28   30.28F
CANNON AFB     SUNNY     72  40  31 NE23G33   30.27F
CLOVIS AIRPORT FAIR      72  43  35 NE21G30   30.28S

$$
NMZ028-029-538-252300-
SOUTHEAST PLAINS

CITY           SKY/WX    TMP DP  RH WIND       PRES   REMARKS
ROSWELL        CLOUDY    71  44  37 NE13      30.25R
ARTESIA        CLOUDY    68  48  49 NE14      30.24S
CARLSBAD       LGT RAIN  67  53  61 N13       30.20R
HOBBS          LGT RAIN  59  52  77 NE15      30.24R


$$




USA.gov is the U.S. government's official web portal to all federal, state and local government web resources and services.